STARLINK G

Last updated on Wed Jul 02 2025 00:02:08 GMT+0000 (Coordinated Universal Time)

1 64600U 25137G 25182.75001157 -.00839742 22933-3 -21387-2 0 9998 2 64600 53.1565 79.6634 0000960 117.4216 161.5613 15.94691285 2055

Satellite not in orbit